Location: Waning Moon II Observatory
(30.3730°N, 89.7620°W)
Time: 08:56:44
(UTC-05:00)

Cosmos 1825 Rocket - Visible Passes

Search period start: 30 June 2016 00:00
Search period end: 10 July 2016 00:00
Orbit: 603 x 632 km, 82.5° (Epoch: 30 June)

Date Brightness Start Highest point End Pass type
(mag) Time Alt. Az. Time Alt. Az. Time Alt. Az.
30 Jun 3.6 05:11:35 10° N 05:15:58 83° E 05:20:21 10° S visible
01 Jul 6.8 03:54:25 10° ENE 03:54:52 10° ENE 03:55:19 10° E visible
01 Jul 3.9 05:28:42 10° NNW 05:32:54 46° W 05:37:06 10° SSW visible
02 Jul 6.1 04:08:46 10° NNE 04:12:03 20° ENE 04:15:20 10° SE visible
03 Jul 4.9 04:25:00 10° N 04:29:08 40° E 04:33:16 10° SSE visible
04 Jul 3.6 04:41:44 10° N 04:46:08 85° E 04:50:32 10° S visible
05 Jul 6.6 03:24:11 10° ENE 03:25:03 10° ENE 03:25:54 10° E visible
05 Jul 3.9 04:58:52 10° NNW 05:03:03 45° W 05:07:16 10° SSW visible
06 Jul 5.9 03:38:53 10° NNE 03:42:13 21° ENE 03:45:34 10° SE visible
06 Jul 4.8 05:16:28 10° NW 05:19:54 23° W 05:23:21 10° SW visible
07 Jul 4.7 03:55:08 10° N 03:59:18 41° E 04:02:35 15° SSE visible
07 Jul 5.5 05:35:19 10° WNW 05:36:40 11° W 05:38:02 10° WSW visible
08 Jul 3.5 04:11:54 10° N 04:16:18 87° E 04:18:35 28° S visible
09 Jul 6.5 02:54:07 10° ENE 02:55:14 11° ENE 02:56:21 10° E visible
09 Jul 3.9 04:29:02 10° NNW 04:33:14 44° W 04:34:40 33° SW visible
